Location: Karlov
(49.9796°N, 13.8938°E)
Time: 15:26:02
(UTC+00:00)

Daily predictions for brighter satellites

Satellite Brightness Start Highest point End
(mag) Time Altitude Azimuth Time Altitude Azimuth Time Altitude Azimuth
Okean 2 Rocket 3.5 19:05:00 10° SSE 19:09:14 44° E 19:13:31 10° NNE
BREEZE-M DEB (TANK) 4.2 19:07:22 10° SW 19:11:57 77° SSE 19:30:54 10° ENE
Cosmos 1371 Rocket 4.0 19:08:40 10° SSW 19:13:57 82° ESE 19:19:20 10° NNE
Cosmos 1536 Rocket 3.5 19:10:16 10° N 19:14:37 79° E 19:18:58 10° SSE
USA 276 1.8 19:14:35 10° WSW 19:15:17 15° SSW 19:15:47 12° SSE
IRS-1A Rocket 4.5 19:09:50 10° SSE 19:15:33 67° ENE 19:21:25 10° N
Cosmos 292 Rocket 3.8 19:13:10 10° NNW 19:17:58 74° ENE 19:22:42 10° SSE
Feng Yun 1-1 Rocket 4.4 19:12:47 10° S 19:18:09 75° WSW 19:23:36 10° NNW
CZ-4C R/B 2.4 19:18:18 10° S 19:21:54 30° ESE 19:26:18 10° ENE
Cosmos 1697 Rocket 2.8 19:18:10 10° NNW 19:23:50 82° WSW 19:29:26 10° SSE
USA 305 3.5 19:20:31 10° WNW 19:24:28 47° N 19:28:11 10° E
Okean O Rocket 1.9 19:20:44 10° SE 19:24:53 51° ENE 19:29:04 10° N
ATLAS 3B R/B 3.0 19:18:12 10° NW 19:26:05 88° SW 19:33:29 10° SE
ERS-1 Rocket 3.3 19:21:55 10° S 19:26:54 71° WSW 19:31:56 10° NNW
SL-16 R/B 4.0 19:23:07 10° N 19:27:16 20° NE 19:31:23 10° E
Cosmos 1741 Rocket 4.2 19:22:15 10° NNW 19:27:32 61° ENE 19:32:45 10° SE
Cosmos 1452 Rocket 4.2 19:23:33 10° SSE 19:28:13 34° ESE 19:32:54 10° NE
Helios 1A Rocket 2.3 19:26:19 10° NNE 19:29:29 79° WNW 19:32:38 10° SSW
Cosmos 332 Rocket 4.5 19:25:24 10° NNW 19:30:03 53° WSW 19:34:39 10° S
Cosmos 1867 3.7 19:24:51 10° SW 19:30:18 85° NW 19:35:48 10° NE
USA 186 2.0 19:28:18 12° SE 19:30:33 37° ENE 19:33:06 10° N
Meteor 1-31 Rocket 4.3 19:30:06 10° SSW 19:33:12 30° W 19:36:19 10° NNW
Cosmos 1331 Rocket 4.1 19:32:20 10° S 19:37:27 56° ESE 19:42:34 10° NNE
Okean-O 2.7 19:33:21 10° SSE 19:37:40 66° ENE 19:42:02 10° N
Cosmos 968 Rocket 3.7 19:33:13 10° NNW 19:38:28 74° WSW 19:43:41 10° SSE
Cosmos 2333 Rocket 4.0 19:35:44 10° NNW 19:40:04 22° NE 19:44:24 10° E
Cosmos 1892 Rocket 3.7 19:38:20 10° N 19:42:37 55° ENE 19:46:26 12° SSE
Cosmos 2016 Rocket 4.2 19:36:48 10° SSE 19:42:50 51° E 19:48:49 10° NNE
CZ-4B R/B 4.2 19:39:17 12° SE 19:43:10 36° ENE 19:47:32 10° N
Meteor 2-1 Rocket 4.2 19:38:24 10° S 19:44:07 86° E 19:49:44 10° NNE
Cosmos 2173 Rocket 4.0 19:39:01 10° S 19:45:08 84° E 19:51:23 10° N
Cosmos 1816 Rocket 4.5 19:40:07 10° N 19:46:17 84° E 19:52:26 10° S
Cosmos 1455 Rocket 3.3 19:43:37 10° S 19:47:53 50° E 19:52:09 10° NNE
SL-08 R/B 3.3 19:46:24 10° NNE 19:51:18 87° ESE 19:56:06 10° SSW
Cosmos 1980 Rocket 2.2 19:46:13 10° NNW 19:51:58 79° ENE 19:56:48 15° SSE
Okean 1 Rocket 3.2 19:49:32 10° SSW 19:53:55 76° WNW 19:58:21 10° N
Meteor 2-3 Rocket 4.3 19:51:31 10° NNW 19:57:01 58° W 20:02:32 10° S
SPOT 3 Rocket 3.7 19:53:56 15° SE 19:58:11 58° ENE 20:03:14 10° N
CZ-4 R/B 3.8 19:57:06 10° SW 19:59:37 18° W 20:02:09 10° NW
CZ-4B R/B 2.8 19:58:30 19° SE 20:00:35 47° ENE 20:03:53 10° N
Cosmos 1782 2.8 19:59:07 15° SSE 20:01:44 47° E 20:05:09 10° NNE
Cosmos 1850 Rocket 4.1 19:56:36 10° NNW 20:01:46 73° WSW 20:06:17 13° SSE
CZ-4B R/B 4.4 20:04:04 10° SSW 20:09:24 41° W 20:14:44 10° NNW
Cosmos 1833 Rocket 3.6 20:06:03 10° SW 20:11:30 51° NW 20:17:00 10° NNE
Cosmos 1802 Rocket 4.0 20:05:25 10° S 20:11:38 88° W 20:17:49 10° N
Cosmos 1110 Rocket 4.2 20:06:20 10° SSW 20:11:38 77° WNW 20:16:58 10° NNE
Cosmos 2084 Rocket 3.9 20:07:32 10° NW 20:11:38 53° NE 20:14:32 19° ESE
Terra 3.5 20:09:35 10° SSW 20:13:42 30° W 20:17:51 10° NNW
Cosmos 1758 Rocket 4.3 20:10:16 10° N 20:14:21 37° ENE 20:16:41 21° SE
IRS-1C Rocket 4.2 20:10:56 18° SSE 20:14:49 64° ENE 20:20:03 10° N
Gbstr 26 Del rocket 3.3 20:11:20 10° WNW 20:16:20 60° SSW 20:18:53 23° SE
Sich 1 Rocket 4.4 20:12:35 10° SSW 20:16:49 51° WNW 20:21:06 10° N
Cosmos 2360 Rocket 3.9 20:13:10 10° NNW 20:17:40 23° NE 20:22:08 10° E
YAOGAN 11 4.3 20:16:32 10° N 20:20:55 72° WNW 20:25:19 10° SSW
CZ-2C R/B 2.3 20:23:39 35° ESE 20:24:26 48° ENE 20:27:08 10° N
Cosmos 1743 3.1 20:23:47 10° NNW 20:26:40 41° W 20:28:34 18° SSW
Cosmos 2237 4.3 20:21:44 10° NNW 20:27:30 71° ENE 20:31:12 23° SE
Meteor 1-27 4.3 20:25:34 10° SSW 20:31:15 79° WNW 20:36:53 10° N
Cosmos 44 Rocket 3.4 20:27:05 10° SW 20:32:10 88° NW 20:37:24 10° NE
ISS -3.5 20:30:18 10° SW 20:33:29 43° SSE 20:35:05 24° E
Cosmos 2219 Rocket 4.1 20:30:55 10° N 20:35:10 21° NE 20:39:24 10° E
Ariane Rocket 3.0 20:32:21 22° SSE 20:35:40 89° WSW 20:40:47 10° NNW
Cosmos 1602 Rocket 4.3 20:36:01 10° N 20:40:03 38° ENE 20:41:43 27° ESE
ATLAS 2AS CENTAUR R/B 4.0 20:34:56 10° WSW 20:41:29 43° NNW 20:47:57 10° NE
Cosmos 2369 3.7 20:37:17 10° NNW 20:43:01 83° WSW 20:46:24 26° SSE
SL-4 R/B 4.0 20:41:45 10° WSW 20:43:47 14° SW 20:44:44 13° SSW
Cosmos 2322 Rocket 3.4 20:40:23 10° NNW 20:45:29 33° NE 20:49:17 16° ESE
Cosmos 2082 Rocket 2.1 20:41:40 10° SSW 20:47:22 75° ESE 20:53:05 10° NNE
Cosmos 1437 Rocket 3.1 20:47:59 35° ESE 20:48:23 36° E 20:51:41 10° NNE
USA 305 2.3 20:46:00 10° WNW 20:50:05 79° SSW 20:51:07 44° SE
Cosmos 909 Rocket 4.0 20:44:01 10° SSW 20:50:15 62° ESE 20:56:36 10° NE
Cosmos 2151 2.9 20:47:14 10° N 20:51:22 67° ENE 20:52:53 36° SSE
USA 234 4.0 20:48:39 10° ENE 20:54:09 28° SE 20:55:31 26° SSE
Cosmos 2233 Rocket 4.3 20:51:41 10° SSW 20:57:51 66° WNW 21:04:01 10° N
Cosmos 1626 Rocket 3.6 20:53:45 10° NNW 20:58:05 77° W 21:00:05 32° S
Cosmos 1607 3.9 20:52:28 10° SW 20:58:38 85° SE 21:04:57 10° NE
Cosmos 2228 3.8 20:55:36 13° SSW 20:59:08 47° WNW 21:03:08 10° N
Okean O Rocket 3.8 20:58:14 10° SW 21:01:22 19° W 21:04:31 10° NW
Cosmos 2278 4.1 20:59:10 10° NNW 21:04:49 56° NE 21:07:47 27° ESE
Okean 1-7 Rocket 4.1 21:04:12 10° N 21:08:30 46° ENE 21:09:50 35° ESE
Cosmos 1992 Rocket 3.9 21:05:58 22° SSW 21:09:27 81° ESE 21:14:41 10° NNE
CZ-4C R/B 2.8 21:05:24 10° WSW 21:09:42 50° NW 21:15:17 10° NE
COSMOS 2406 3.3 21:07:29 27° S 21:10:28 57° ESE 21:16:06 10° NE
Meteor 1-20 Rocket 4.2 21:05:28 10° NNW 21:11:01 80° W 21:13:52 30° S
SL-16 R/B 2.2 21:06:37 10° NNW 21:12:19 76° ENE 21:14:58 33° SE
Helios 1A 3.3 21:08:57 10° NNE 21:12:42 41° E 21:13:02 40° ESE
Nadezhda 4 Rocket 4.1 21:09:23 10° N 21:15:29 63° ENE 21:18:18 32° SE
ATLAS 3B R/B 4.4 21:10:00 10° WNW 21:15:54 25° WSW 21:20:47 13° SSW
Cosmos 1606 Rocket 4.1 21:15:48 37° ESE 21:16:31 40° E 21:20:34 10° NNE
Cosmos 1805 2.8 21:14:41 10° N 21:17:57 59° ENE 21:18:02 59° E
Cosmos 1486 Rocket 4.3 21:13:14 10° NNW 21:18:26 57° ENE 21:20:37 33° SE
Cosmos 2333 Rocket 2.2 21:19:30 10° NNW 21:25:14 83° ENE 21:27:39 37° SE
Cosmos 2098 Rocket 3.3 21:25:32 40° SSE 21:27:20 71° E 21:31:57 10° NNE
Cosmos 1726 Rocket 4.0 21:29:27 37° E 21:29:40 37° E 21:33:25 10° NNE
Meteor 1-25 Rocket 4.3 21:24:20 10° NNW 21:30:03 75° W 21:32:32 35° S
Cosmos 1076 Rocket 3.8 21:30:04 10° N 21:34:15 50° ENE 21:35:03 44° ESE
Cosmos 1980 Rocket 4.1 21:31:18 10° NW 21:35:17 20° W 21:38:33 12° SW
Cosmos 1544 Rocket 4.4 21:35:33 24° SW 21:37:50 46° WNW 21:42:03 10° N
Cosmos 2026 Rocket 4.3 21:33:49 10° N 21:40:06 57° ENE 21:42:46 34° SE
NOSS 3-3 (A) 3.8 21:35:03 10° SW 21:40:17 80° NW 21:46:41 10° NE
Cosmos 1933 4.0 21:44:19 33° WSW 21:45:31 45° WNW 21:49:12 10° N
Spot 4 4.4 21:44:25 36° ESE 21:45:48 48° ENE 21:50:24 10° N
DNEPR-1 R/B 4.3 21:41:12 10° NW 21:46:35 85° NE 21:49:21 36° SE
Okean 1 3.1 21:49:59 65° ENE 21:49:59 65° ENE 21:53:22 10° NNE
Helios 1B rocket 1.9 21:51:52 79° WSW 21:51:52 79° WSW 21:55:24 10° NNW
Cosmos 2333 4.3 21:49:41 10° NNW 21:55:25 73° ENE 21:57:35 39° SE
Cosmos 1464 Rocket 4.0 21:53:23 32° SSW 21:56:22 78° W 22:02:34 10° N
Cosmos 1375 Rocket 4.4 21:52:57 27° SSW 21:56:44 78° SE 22:03:20 10° NE
Cosmos 2360 Rocket 2.1 21:56:42 10° NNW 22:02:25 88° WSW 22:04:14 46° SSE
Meteor 1-26 Rocket 4.3 22:03:06 45° SE 22:04:27 57° E 22:09:56 10° NNE
Meteor 2-10 4.5 21:59:18 10° NNW 22:04:56 62° W 22:06:57 39° SSW
ALOS 2 2.8 22:06:32 51° ESE 22:07:17 60° ENE 22:11:38 10° N
ARIANE 5 R/B 2.6 22:07:11 59° SE 22:07:55 74° ENE 22:12:22 10° N
NOSS 3-3 (C) 4.1 22:02:58 10° SW 22:08:18 67° NW 22:14:47 10° NE
Cosmos 1825 Rocket 3.9 22:04:15 10° NNW 22:08:29 54° W 22:09:11 48° SW
ISS -1.9 22:06:52 10° W 22:08:14 22° W 22:08:14 22° W
Cosmos 1953 Rocket 3.4 22:05:50 10° N 22:10:14 88° W 22:10:47 68° S
Cosmos 2058 Rocket 3.3 22:11:46 51° ESE 22:12:01 52° E 22:16:15 10° NNE
BREEZE-M R/B 4.1 22:09:45 10° W 22:17:30 89° SSW 22:23:19 10° ESE
Cosmos 1092 Rocket 3.9 22:12:32 10° N 22:18:44 87° E 22:20:51 44° S
CZ-2C R/B 3.5 22:15:02 10° NNE 22:19:29 83° ESE 22:20:05 66° S
Cosmos 2219 Rocket 2.2 22:14:18 10° NNW 22:20:00 82° ENE 22:21:47 45° SE
NOSS 3-4 (A) 3.8 22:16:13 10° NW 22:22:53 71° SW 22:26:01 38° SSE
NOSS 3-4 (C) 3.8 22:16:49 10° NW 22:23:30 72° SW 22:26:40 38° SSE
Cosmos 540 Rocket 3.5 22:23:21 54° SSE 22:24:10 62° ESE 22:29:16 10° NNE
PSLV R/B 3.7 22:21:29 10° NNE 22:25:38 54° E 22:25:44 54° ESE
Cosmos 1461 2.6 22:26:33 73° NW 22:26:33 73° NW 22:30:12 10° NE
Cosmos 2322 Rocket 2.5 22:24:18 10° NW 22:29:47 54° WSW 22:31:03 44° SSW
MetOp-A 4.3 22:29:01 43° ESE 22:30:21 57° ENE 22:35:07 10° N
Cosmos 2034 Rocket 4.2 22:27:37 35° SSW 22:30:27 67° WNW 22:36:48 10° N
Cosmos 2082 Rocket 4.2 22:27:16 10° W 22:32:02 26° NW 22:36:49 10° NNE
SL-08 ROCKET BODY 4.5 22:30:11 10° N 22:36:20 74° ENE 22:38:25 44° SSE
Cosmos 1707 3.7 22:38:21 33° N 22:38:21 33° N 22:40:06 10° N
USA 234 3.1 22:31:14 10° ENE 22:37:49 80° SE 22:42:49 19° SW
Cosmos 1536 2.7 22:34:43 10° NNW 22:38:06 71° NW 22:38:06 71° NW
Meteor 2-9 Rocket 4.4 22:34:37 10° N 22:39:54 57° ENE 22:41:29 41° SE
ACS3 Solar Sail 3.4 22:37:41 10° NE 22:41:56 20° E 22:44:07 16° ESE
COSMOS 2428 3.5 22:37:59 10° NNW 22:43:31 48° NE 22:46:33 25° ESE
Cosmos 2237 Rocket 4.0 22:41:57 10° NNW 22:46:47 27° NE 22:51:35 10° ESE
Cosmos 1763 Rocket 3.5 22:45:39 49° SW 22:47:08 80° WNW 22:52:27 10° NNE
Cosmos-2242 3.1 22:47:28 56° WSW 22:47:50 58° WNW 22:51:56 10° N
CZ-2C R/B 3.5 22:44:55 10° NNE 22:50:31 58° E 22:51:56 46° SSE
Cosmos 990 Rocket 4.1 22:46:43 10° NNW 22:51:45 55° WSW 22:52:30 50° SW
ARGOS Delta rocket 4.0 22:49:53 10° N 22:54:52 76° WNW 22:56:07 52° SSW
SL-16 R/B 3.8 22:51:42 10° NW 22:55:46 21° W 22:56:47 20° WSW
USA 290 3.5 22:56:47 38° NW 22:56:47 38° NW 22:59:21 10° NNE
Cosmos 1354 Rocket 4.3 22:53:32 10° NNW 22:58:36 49° WSW 22:59:19 46° SW
Cosmos 1634 Rocket 4.1 22:57:50 41° SSW 23:00:02 69° WNW 23:06:15 10° N
Cosmos 2279 Rocket 3.9 23:01:48 46° S 23:03:51 88° W 23:10:10 10° N
Cosmos 1470 3.1 23:01:38 10° NNW 23:04:12 50° NNW 23:04:12 50° NNW
SeaSat 1 2.4 23:03:53 48° SE 23:05:14 78° ENE 23:10:10 10° NNW
Meteor 2-6 Rocket 4.3 23:06:35 47° SSW 23:08:25 82° W 23:14:26 10° N
Cosmos 2333 Rocket 3.9 23:05:00 10° WNW 23:08:48 19° W 23:09:39 18° WSW
Cosmos 2221 2.3 23:09:57 74° ESE 23:10:02 74° E 23:14:13 10° NNE
Cosmos 1842 3.8 23:13:51 41° NNW 23:13:51 41° NNW 23:16:14 10° N
Cosmos 841 Rocket 3.9 23:12:28 44° SE 23:13:13 47° ESE 23:18:14 10° NNE
CZ-2C R/B 2.5 23:16:22 53° S 23:17:40 85° WSW 23:22:58 10° NNW
Meteor 1-19 Rocket 4.2 23:17:12 50° S 23:18:45 77° E 23:24:37 10° NNE
BREEZE-M DEB (TANK) 3.3 23:12:23 10° W 23:18:57 66° SSW 23:24:11 10° ESE
NOSS 0 Rocket 4.0 23:18:38 10° NNW 23:24:50 72° ENE 23:28:04 30° SE
Cosmos 1975 3.1 23:25:07 10° NNW 23:28:17 50° WNW 23:28:17 50° WNW
Aureole 1 Rocket 4.2 23:25:39 10° NW 23:30:47 47° WSW 23:32:03 41° SW
Cosmos 2266 Rocket 3.8 23:26:27 10° N 23:32:31 82° W 23:34:28 46° S
Cosmos 2322 3.6 23:27:59 10° NNW 23:33:42 75° WSW 23:35:16 49° S
Cosmos 1812 Rocket 3.4 23:34:01 71° SSW 23:34:28 83° W 23:38:54 10° N
Cosmos 2297 Rocket 3.1 23:33:58 31° SE 23:35:15 34° ESE 23:40:18 10° NE
Cosmos 44 3.5 23:32:02 10° NW 23:37:22 60° WSW 23:38:08 54° SSW
Cosmos 1271 Rocket 3.5 23:38:07 37° WNW 23:38:07 37° WNW 23:41:03 10° N
Cosmos 372 Rocket 4.3 23:38:13 10° NW 23:43:04 44° WSW 23:43:34 43° WSW
RESURS DK-1 2.1 23:40:19 10° NNW 23:44:13 79° W 23:44:13 79° W
Cosmos 1937 Rocket 3.3 23:39:22 10° NNW 23:44:32 77° WSW 23:45:41 54° S
Cosmos 2360 Rocket 4.0 23:42:12 10° WNW 23:45:33 16° W 23:45:57 16° WSW
Lacrosse 4 Rocket 3.6 23:46:25 14° ESE 23:46:25 14° ESE 23:48:28 10° ENE
Meteor 1-11 Rocket 3.8 23:42:19 10° NNW 23:48:00 66° W 23:49:31 47° SSW
GP-B 3.5 23:44:31 10° N 23:48:44 47° W 23:49:14 45° WSW
Meteor 2-20 4.4 23:48:56 44° SSW 23:51:05 87° W 23:57:14 10° N
